Weather History for Johnstown, PA

Change the Weather History Date:

Monday, April 1, 2013

  Actual Average Record
Temperature  
Mean Temperature 34 °F 42 °F  
Max Temperature 42 °F 50 °F 85 °F (1986)
Min Temperature 26 °F 33 °F 9 °F (1923)
Degree Days  
Heating Degree Days 30 23  
Month to date heating degree days 23  
Since 1 July heating degree days 5815  
Cooling Degree Days 0 0  
Month to date cooling degree days 0  
Year to date cooling degree days 0  
Moisture  
Dew Point 28 °F    
Average Humidity 79    
Maximum Humidity 93    
Minimum Humidity 42    
Precipitation  
Precipitation 0.06 in 0.14 in 1.22 in (1904)
Month to date precipitation 0.14  
Year to date precipitation 8.66  
Sea Level Pressure  
Sea Level Pressure 29.79 in    
Wind  
Wind Speed 15 mph (West)    
Max Wind Speed 22 mph    
Max Gust Speed 38 mph    
Visibility 6 miles    
Events Fog , Rain , Snow    
T = Trace of Precipitation, MM = Missing Value Source: NWS Daily Summary

Daily Weather History Graph

Daily Weather History Graph

Search for Another Location

Airport:

Trip Planner

Search our weather history database for the weather conditions in past years. The results will help you decide how hot, cold, wet, or windy it might be!

Date:

Astronomy

Apr. 01, 2013 Rise Set
Actual Time 6:58 AM EDT 7:40 PM EDT
Civil Twilight 6:31 AM EDT 8:07 PM EDT
Nautical Twilight 5:58 AM EDT 8:40 PM EDT
Astronomical Twilight 5:25 AM EDT 9:13 PM EDT
Moon 12:47 AM EDT (4/1) 10:43 AM EDT (4/1)
Length of Visible Light 13h 36m
Length of Day
12h 41m
Waning Gibbous, 67% of the Moon is Illuminated
Apr 1
Waning Gibbous
Apr 3
Last Quarter
Apr 10
New
Apr 18
First Quarter
Apr 25
Full

Hourly Weather History & Observations

Time (EDT) Temp. Windchill Dew Point Humidity Pressure Visibility Wind Dir Wind Speed Gust Speed Precip Events Conditions
12:54 AM 41.0 °F 33.1 °F 37.9 °F 89% 29.72 in 10.0 mi West 15.0 mph - N/A   Mostly Cloudy
1:54 AM 41.0 °F 33.9 °F 37.9 °F 89% 29.73 in 10.0 mi WSW 12.7 mph 23.0 mph N/A   Overcast
2:17 AM 41.0 °F 33.5 °F 37.4 °F 87% 29.69 in 10.0 mi WSW 13.8 mph - N/A   Overcast
2:31 AM 42.8 °F 35.8 °F 37.4 °F 81% 29.69 in 10.0 mi WSW 13.8 mph 20.7 mph N/A   Overcast
2:54 AM 42.1 °F 36.1 °F 37.0 °F 82% 29.72 in 10.0 mi WSW 10.4 mph - N/A   Overcast
3:42 AM 42.8 °F 35.4 °F 35.6 °F 76% 29.68 in 10.0 mi WSW 15.0 mph 23.0 mph 0.00 in Rain Light Rain
3:54 AM 42.1 °F 35.7 °F 37.0 °F 82% 29.71 in 10.0 mi WSW 11.5 mph 23.0 mph 0.00 in Rain Light Rain
4:25 AM 42.8 °F 35.1 °F 37.4 °F 81% 29.67 in 10.0 mi WSW 16.1 mph 21.9 mph N/A   Overcast
4:43 AM 42.8 °F 35.1 °F 37.4 °F 81% 29.66 in 10.0 mi WSW 16.1 mph - N/A   Overcast
5:54 AM 42.1 °F 34.2 °F 37.0 °F 82% 29.70 in 10.0 mi West 16.1 mph 26.5 mph N/A   Overcast
6:16 AM 42.8 °F 35.4 °F 37.4 °F 81% 29.67 in 10.0 mi West 15.0 mph 21.9 mph N/A   Overcast
6:54 AM 41.0 °F 32.2 °F 36.0 °F 82% 29.72 in 10.0 mi West 18.4 mph 25.3 mph N/A   Overcast
7:54 AM 41.0 °F 33.1 °F 36.0 °F 82% 29.73 in 10.0 mi West 15.0 mph 21.9 mph N/A   Overcast
8:25 AM 39.2 °F 30.8 °F 35.6 °F 87% 29.71 in 3.0 mi WNW 15.0 mph 21.9 mph 0.02 in Rain Rain
8:32 AM 37.4 °F 26.6 °F 33.8 °F 87% 29.72 in 5.0 mi West 21.9 mph 38.0 mph 0.03 in Rain Light Rain
8:43 AM 37.4 °F 28.2 °F 30.2 °F 75% 29.72 in 10.0 mi West 16.1 mph 26.5 mph 0.03 in   Overcast
8:50 AM 39.2 °F 29.8 °F 30.2 °F 70% 29.72 in 10.0 mi WNW 18.4 mph 24.2 mph 0.03 in   Overcast
8:51 AM 39.0 °F 29.3 °F 28.9 °F 67% 29.76 in 10.0 mi WNW 19.6 mph 26.5 mph 0.03 in   Overcast
9:54 AM 37.0 °F 27.7 °F 27.0 °F 67% 29.78 in 8.0 mi West 16.1 mph 28.8 mph 0.00 in Snow Light Snow
10:07 AM 35.6 °F 25.2 °F 28.4 °F 75% 29.75 in 6.0 mi West 18.4 mph 27.6 mph 0.00 in Snow Light Snow
10:24 AM 33.8 °F 22.8 °F 28.4 °F 81% 29.76 in 1.8 mi WNW 18.4 mph 24.2 mph 0.00 in Snow Light Snow
10:35 AM 33.8 °F 23.2 °F 30.2 °F 87% 29.76 in 2.0 mi WNW 17.3 mph - 0.00 in Snow Light Snow
10:45 AM 33.8 °F 23.9 °F 28.4 °F 81% 29.77 in 1.8 mi WNW 15.0 mph 24.2 mph 0.00 in Snow Light Snow
10:49 AM 32.0 °F 21.2 °F 28.4 °F 87% 29.77 in 1.5 mi NW 16.1 mph 24.2 mph 0.00 in Snow Light Snow
10:54 AM 32.0 °F 21.2 °F 30.0 °F 92% 29.82 in 1.8 mi WNW 16.1 mph - 0.00 in Snow Light Snow
11:02 AM 32.0 °F 20.8 °F 30.2 °F 93% 29.77 in 2.5 mi WNW 17.3 mph - 0.00 in Snow Light Snow
11:04 AM 32.0 °F 21.6 °F 30.2 °F 93% 29.77 in 3.0 mi West 15.0 mph - 0.00 in Snow Light Snow
11:13 AM 32.0 °F 20.5 °F 28.4 °F 87% 29.78 in 6.0 mi West 18.4 mph - 0.00 in   Overcast
11:21 AM 32.0 °F 21.6 °F 28.4 °F 87% 29.78 in 1.8 mi West 15.0 mph - 0.00 in Snow Light Snow
11:32 AM 30.2 °F 18.1 °F 28.4 °F 93% 29.78 in 0.5 mi West 18.4 mph 27.6 mph 0.00 in Fog , Snow Snow
11:49 AM 32.0 °F 22.5 °F 30.2 °F 93% 29.78 in 1.0 mi West 12.7 mph - 0.00 in Snow Light Snow
11:54 AM 32.0 °F 22.1 °F 30.0 °F 92% 29.83 in 1.2 mi West 13.8 mph - 0.00 in Snow Light Snow
12:02 PM 33.8 °F 24.3 °F 30.2 °F 87% 29.78 in 2.0 mi West 13.8 mph 21.9 mph 0.00 in Snow Light Snow
12:15 PM 33.8 °F 24.8 °F 30.2 °F 87% 29.79 in 1.5 mi West 12.7 mph 23.0 mph 0.00 in Snow Light Snow
12:28 PM 32.0 °F 21.6 °F 28.4 °F 87% 29.79 in 1.0 mi West 15.0 mph 21.9 mph 0.00 in Snow Light Snow
12:30 PM 30.2 °F 19.8 °F 28.4 °F 93% 29.79 in 0.8 mi West 13.8 mph 21.9 mph 0.01 in Snow Light Snow
12:40 PM 28.4 °F 15.1 °F 26.6 °F 93% 29.80 in 0.2 mi WNW 20.7 mph 28.8 mph 0.03 in Fog , Snow Snow
12:49 PM 28.4 °F 15.4 °F 26.6 °F 93% 29.80 in 1.0 mi WNW 19.6 mph 26.5 mph 0.03 in Snow Light Snow
12:50 PM 28.9 °F 16.9 °F 27.0 °F 92% 29.86 in 1.2 mi WNW 17.3 mph 26.5 mph 0.03 in Snow Light Snow
12:56 PM 28.4 °F 16.6 °F 26.6 °F 93% 29.81 in 2.0 mi WNW 16.1 mph 24.2 mph 0.00 in Snow Light Snow
1:04 PM 28.4 °F 16.2 °F 26.6 °F 93% 29.81 in 1.8 mi WNW 17.3 mph - 0.00 in Snow Light Snow
1:23 PM 28.4 °F 17.5 °F 24.8 °F 86% 29.82 in 1.8 mi WNW 13.8 mph - 0.00 in Snow Light Snow
1:27 PM 28.4 °F 17.0 °F 26.6 °F 93% 29.82 in 2.0 mi WNW 15.0 mph - 0.00 in Snow Light Snow
1:34 PM 28.4 °F 16.6 °F 24.8 °F 86% 29.82 in 2.0 mi WNW 16.1 mph - 0.00 in Snow Light Snow
2:32 PM 30.2 °F 19.8 °F 24.8 °F 80% 29.81 in 10.0 mi WNW 13.8 mph 21.9 mph 0.00 in   Mostly Cloudy
2:44 PM 32.0 °F 23.6 °F 26.6 °F 80% 29.81 in 10.0 mi West 10.4 mph 18.4 mph 0.00 in   Mostly Cloudy
3:54 PM 35.1 °F 24.5 °F 19.9 °F 54% 29.86 in 10.0 mi WNW 18.4 mph 27.6 mph N/A   Mostly Cloudy
4:54 PM 35.1 °F 24.5 °F 14.0 °F 42% 29.87 in 10.0 mi WNW 18.4 mph 28.8 mph N/A   Scattered Clouds
5:54 PM 34.0 °F 22.4 °F 14.0 °F 44% 29.89 in 10.0 mi NW 20.7 mph 28.8 mph N/A   Mostly Cloudy
6:54 PM 33.1 °F 22.6 °F 12.9 °F 43% 29.91 in 10.0 mi WNW 16.1 mph - N/A   Mostly Cloudy
7:54 PM 30.9 °F 19.8 °F 10.9 °F 43% 29.92 in 10.0 mi WNW 16.1 mph 20.7 mph N/A   Clear
8:54 PM 30.0 °F 18.7 °F 10.0 °F 43% 29.94 in 10.0 mi WNW 16.1 mph 23.0 mph N/A   Partly Cloudy
9:54 PM 28.0 °F 18.6 °F 10.9 °F 49% 29.96 in 10.0 mi NW 10.4 mph - N/A   Clear
10:54 PM 27.0 °F 17.3 °F 9.0 °F 47% 29.98 in 10.0 mi WNW 10.4 mph - N/A   Partly Cloudy
11:54 PM 26.1 °F 16.2 °F 10.0 °F 51% 29.98 in 10.0 mi WNW 10.4 mph - N/A   Mostly Cloudy